Retour au catalogue

COSMOS 1275 DEB

ActifPO
NORAD 42109·DEBRIS·🇷🇺 Russia

Lancé Jun 4, 1981 depuis Plesetsk Cosmodrome

Loading…

Prochains Passages (prochaines 24 heures)

TLE

FraisSource: Space-Track

Époque: Sep 14, 2026, 08:35 UTC

1 42109U 81053PV  26257.35827841  .00000077  00000-0  60971-4 0  9994
2 42109  82.9458 112.2969 0028477 198.0198 282.7060 13.78331737644381

Suivez COSMOS 1275 DEB en temps réel avec AllMySat

Download on the App Store